| time (UTC) | temp F | wind direction | speed knots | gust knots | rain 1hr in | rain 24hr in | rain mn in | humidity % | barometer mb |
| 20260505151600 | 60 | 355 | 10.4 | 17.4 | 0.00 | 0.01 | 0.00 | 83 | 1004.5 |
| 20260505151502 | 60 | 341 | 7.8 | 16.5 | 0.00 | 0.01 | 0.00 | 83 | 1004.5 |
| 20260505150114 | 61 | 61 | 7.8 | 13.9 | 0.00 | 0.01 | 0.00 | 83 | 1004.4 |
| 20260505124545 | 66 | 59 | 2.6 | 7.8 | 0.00 | 0.01 | 0.00 | 81 | 1003.4 |
| 20260505123105 | 65 | 63 | 3.5 | 7.8 | 0.00 | 0.01 | 0.00 | 82 | 1002.6 |
| 20260505121544 | 65 | 172 | 1.7 | 3.5 | 0.00 | 0.01 | 0.00 | 82 | 1002.4 |
| 20260505120050 | 65 | 61 | 1.7 | 4.3 | 0.00 | 0.01 | 0.00 | 82 | 1002.5 |
| 20260505114553 | 65 | 136 | 2.6 | 8.7 | 0.00 | 0.01 | 0.00 | 82 | 1002.1 |
| 20260505113044 | 65 | 35 | 3.5 | 8.7 | 0.00 | 0.01 | 0.00 | 82 | 1002.2 |
| 20260505111541 | 65 | 74 | 2.6 | 8.7 | 0.00 | 0.01 | 0.00 | 83 | 1002.2 |
| 20260505101544 | 65 | 15 | 2.6 | 8.7 | 0.00 | 0.01 | 0.00 | 84 | 1001.7 |
| 20260505100039 | 65 | 48 | 1.7 | 9.6 | 0.00 | 0.01 | 0.00 | 84 | 1001.6 |
| 20260505094538 | 64 | 102 | 2.6 | 9.6 | 0.00 | 0.01 | 0.00 | 85 | 1001.5 |
| 20260505093044 | 64 | 59 | 2.6 | 8.7 | 0.00 | 0.01 | 0.00 | 84 | 1001.4 |
| 20260505091543 | 64 | 127 | 1.7 | 7.0 | 0.00 | 0.01 | 0.00 | 84 | 1001.5 |
| 20260505090046 | 64 | 86 | 1.7 | 7.8 | 0.00 | 0.01 | 0.00 | 82 | 1001.6 |
| 20260505084533 | 65 | 105 | 2.6 | 7.8 | 0.00 | 0.01 | 0.00 | 81 | 1001.4 |
| 20260505083030 | 65 | 105 | 2.6 | 7.8 | 0.00 | 0.01 | 0.00 | 81 | 1001.5 |
| 20260505081536 | 66 | 62 | 3.5 | 8.7 | 0.00 | 0.01 | 0.00 | 79 | 1001.6 |
| 20260505080044 | 67 | 39 | 2.6 | 8.7 | 0.00 | 0.01 | 0.00 | 78 | 1001.7 |
| 20260505074524 | 67 | 26 | 2.6 | 7.8 | 0.00 | 0.01 | 0.00 | 78 | 1001.8 |
| 20260505073024 | 68 | 17 | 2.6 | 6.1 | 0.00 | 0.01 | 0.00 | 78 | 1002.2 |
| 20260505071532 | 68 | 90 | 1.7 | 7.0 | 0.00 | 0.01 | 0.00 | 78 | 1002.5 |
| 20260505070025 | 67 | 89 | 1.7 | 6.1 | 0.00 | 0.01 | 0.00 | 79 | 1002.7 |
| 20260505064522 | 67 | 72 | 2.6 | 7.0 | 0.00 | 0.01 | 0.00 | 79 | 1002.9 |
| 20260505063021 | 67 | 63 | 2.6 | 7.0 | 0.00 | 0.01 | 0.00 | 80 | 1003.3 |
| 20260505061519 | 67 | 20 | 2.6 | 7.8 | 0.00 | 0.01 | 0.00 | 79 | 1003.2 |
| 20260505060022 | 68 | 19 | 0.9 | 4.3 | 0.00 | 0.01 | 0.00 | 78 | 1003.0 |
| 20260505054517 | 68 | 343 | 1.7 | 4.3 | 0.00 | 0.01 | 0.00 | 77 | 1002.9 |
| 20260505053017 | 67 | 104 | 0.0 | 4.3 | 0.00 | 0.01 | 0.00 | 76 | 1002.4 |
| 20260505051509 | 67 | 169 | 1.7 | 7.0 | 0.00 | 0.01 | 0.00 | 76 | 1001.9 |
| 20260505041504 | 68 | 133 | 2.6 | 7.0 | 0.01 | 0.01 | 0.01 | 75 | 1002.0 |
| 20260505040005 | 68 | 196 | 3.5 | 8.7 | 0.01 | 0.01 | 0.01 | 73 | 1001.8 |
| 20260505034600 | 70 | 165 | 6.1 | 12.2 | 0.00 | 0.00 | 0.00 | 70 | 1002.1 |
| 20260505033058 | 70 | 153 | 2.6 | 8.7 | 0.00 | 0.00 | 0.00 | 67 | 1002.4 |
| 20260505031600 | 71 | 159 | 3.5 | 8.7 | 0.00 | 0.00 | 0.00 | 66 | 1002.7 |
| 20260505030056 | 71 | 150 | 1.7 | 7.0 | 0.00 | 0.00 | 0.00 | 66 | 1003.1 |
| 20260505024557 | 71 | 166 | 2.6 | 7.8 | 0.00 | 0.00 | 0.00 | 66 | 1003.1 |
| 20260505023055 | 72 | 133 | 2.6 | 6.1 | 0.00 | 0.00 | 0.00 | 66 | 1003.3 |
| 20260505021555 | 72 | 138 | 0.9 | 6.1 | 0.00 | 0.00 | 0.00 | 65 | 1003.0 |
| 20260505020053 | 73 | 167 | 2.6 | 8.7 | 0.00 | 0.00 | 0.00 | 64 | 1003.0 |
| 20260505014653 | 73 | 163 | 4.3 | 8.7 | 0.00 | 0.00 | 0.00 | 63 | 1002.8 |
| 20260505013053 | 74 | 155 | 4.3 | 8.7 | 0.00 | 0.00 | 0.00 | 62 | 1002.6 |
| 20260505011558 | 74 | 134 | 3.5 | 11.3 | 0.00 | 0.00 | 0.00 | 62 | 1002.5 |
| 20260505010051 | 75 | 175 | 4.3 | 9.6 | 0.00 | 0.00 | 0.00 | 62 | 1002.6 |
| 20260505004551 | 76 | 160 | 6.1 | 9.6 | 0.00 | 0.00 | 0.00 | 61 | 1002.5 |
| 20260505003052 | 76 | 150 | 4.3 | 9.6 | 0.00 | 0.00 | 0.00 | 60 | 1002.8 |
| 20260505001603 | 77 | 169 | 3.5 | 12.2 | 0.00 | 0.00 | 0.00 | 60 | 1002.8 |
| 20260505000107 | 77 | 161 | 5.2 | 11.3 | 0.00 | 0.00 | 0.00 | 59 | 1003.0 |
| 20260504234606 | 77 | 186 | 4.3 | 11.3 | 0.00 | 0.00 | 0.00 | 59 | 1002.9 |
| 20260504233057 | 78 | 146 | 4.3 | 13.9 | 0.00 | 0.00 | 0.00 | 58 | 1003.0 |
| 20260504231547 | 78 | 172 | 4.3 | 10.4 | 0.00 | 0.00 | 0.00 | 58 | 1002.9 |
| 20260504230046 | 78 | 169 | 5.2 | 13.9 | 0.00 | 0.00 | 0.00 | 57 | 1003.0 |
| 20260504224603 | 79 | 138 | 5.2 | 12.2 | 0.00 | 0.00 | 0.00 | 57 | 1003.0 |
| 20260504223048 | 79 | 157 | 6.1 | 10.4 | 0.00 | 0.00 | 0.00 | 57 | 1002.9 |
| 20260504221547 | 79 | 176 | 3.5 | 9.6 | 0.00 | 0.00 | 0.00 | 58 | 1002.8 |
| 20260504220044 | 79 | 147 | 3.5 | 10.4 | 0.00 | 0.00 | 0.00 | 57 | 1002.9 |
| 20260504214546 | 79 | 200 | 6.1 | 15.6 | 0.00 | 0.00 | 0.00 | 57 | 1002.9 |
| 20260504213100 | 79 | 174 | 7.0 | 13.0 | 0.00 | 0.00 | 0.00 | 56 | 1003.3 |
| 20260504211541 | 80 | 156 | 5.2 | 13.0 | 0.00 | 0.00 | 0.00 | 55 | 1003.3 |
| 20260504210042 | 81 | 241 | 4.3 | 12.2 | 0.00 | 0.00 | 0.00 | 55 | 1003.3 |
| 20260504204539 | 81 | 157 | 6.1 | 11.3 | 0.00 | 0.00 | 0.00 | 52 | 1003.4 |
| 20260504203036 | 81 | 157 | 6.1 | 13.9 | 0.00 | 0.00 | 0.00 | 54 | 1003.6 |
| 20260504201536 | 81 | 159 | 5.2 | 13.9 | 0.00 | 0.00 | 0.00 | 54 | 1003.7 |
| 20260504200032 | 81 | 194 | 7.0 | 17.4 | 0.00 | 0.00 | 0.00 | 52 | 1004.1 |
| 20260504194529 | 82 | 157 | 7.8 | 14.8 | 0.00 | 0.00 | 0.00 | 52 | 1004.2 |
| 20260504193032 | 82 | 217 | 5.2 | 12.2 | 0.00 | 0.00 | 0.00 | 54 | 1004.2 |
| 20260504191527 | 82 | 211 | 5.2 | 13.0 | 0.00 | 0.00 | 0.00 | 54 | 1004.3 |
| 20260504190027 | 81 | 202 | 7.8 | 14.8 | 0.00 | 0.00 | 0.00 | 54 | 1004.2 |
| 20260504184528 | 82 | 183 | 7.8 | 16.5 | 0.00 | 0.00 | 0.00 | 52 | 1004.6 |
| 20260504183025 | 81 | 200 | 6.1 | 14.8 | 0.00 | 0.00 | 0.00 | 54 | 1004.6 |
| 20260504181522 | 80 | 199 | 6.1 | 20.0 | 0.00 | 0.00 | 0.00 | 53 | 1004.8 |
| 20260504180019 | 80 | 203 | 7.8 | 14.8 | 0.00 | 0.00 | 0.00 | 53 | 1005.0 |
| 20260504174517 | 80 | 246 | 8.7 | 19.1 | 0.00 | 0.00 | 0.00 | 54 | 1005.2 |
| 20260504173026 | 81 | 157 | 7.0 | 14.8 | 0.00 | 0.00 | 0.00 | 52 | 1005.4 |
| 20260504171521 | 80 | 130 | 5.2 | 16.5 | 0.00 | 0.00 | 0.00 | 54 | 1005.6 |